Time,TemperatureF,DewpointF,PressureIn,WindDirection,WindDirectionDegrees,WindSpeedMPH,WindSpeedGustMPH,Humidity,HourlyPrecipIn,Conditions,Clouds,dailyrainin,SoftwareType,DateUTC
2013-06-20 00:01:00,72.0,59.0,30.07,North,0,0.0,-999.0,64,-99.99,,,-99.99,,2013-06-20 05:01:00,
2013-06-20 00:11:00,72.0,59.0,30.07,North,0,0.0,-999.0,64,-99.99,,,-99.99,,2013-06-20 05:11:00,
2013-06-20 00:21:00,70.0,59.0,30.07,North,0,0.0,-999.0,68,-99.99,,,-99.99,,2013-06-20 05:21:00,
2013-06-20 00:33:00,70.0,59.0,30.07,North,0,0.0,-999.0,68,-99.99,,,-99.99,,2013-06-20 05:33:00,
2013-06-20 00:43:00,70.0,59.0,30.07,ESE,120,3.0,-999.0,68,-99.99,,,-99.99,,2013-06-20 05:43:00,
2013-06-20 00:52:00,70.0,57.0,30.07,North,0,0.0,-999.0,64,-99.99,,,-99.99,,2013-06-20 05:52:00,
2013-06-20 01:02:00,72.0,57.0,30.07,North,0,0.0,-999.0,60,-99.99,,,-99.99,,2013-06-20 06:02:00,
2013-06-20 01:11:00,70.0,57.0,30.07,North,0,0.0,-999.0,64,-99.99,,,-99.99,,2013-06-20 06:11:00,
2013-06-20 01:22:00,72.0,57.0,30.07,North,0,0.0,-999.0,60,-99.99,,,-99.99,,2013-06-20 06:22:00,
2013-06-20 01:33:00,72.0,57.0,30.08,North,0,0.0,-999.0,60,-99.99,,,-99.99,,2013-06-20 06:33:00,
2013-06-20 01:43:00,70.0,57.0,30.08,East,100,3.0,-999.0,64,-99.99,,,-99.99,,2013-06-20 06:43:00,
2013-06-20 01:53:00,70.0,57.0,30.08,North,0,0.0,-999.0,64,-99.99,,,-99.99,,2013-06-20 06:53:00,
2013-06-20 02:01:00,70.0,57.0,30.08,North,0,0.0,-999.0,64,-99.99,,,-99.99,,2013-06-20 07:01:00,
2013-06-20 02:11:00,68.0,57.0,30.08,North,0,0.0,-999.0,68,-99.99,,,-99.99,,2013-06-20 07:11:00,
2013-06-20 02:22:00,68.0,57.0,30.08,SE,130,3.0,-999.0,68,-99.99,,,-99.99,,2013-06-20 07:22:00,
2013-06-20 02:33:00,68.0,57.0,30.08,North,0,0.0,-999.0,68,-99.99,,,-99.99,,2013-06-20 07:33:00,
2013-06-20 02:43:00,66.0,57.0,30.08,SE,130,3.0,-999.0,72,-99.99,,,-99.99,,2013-06-20 07:43:00,
2013-06-20 02:52:00,66.0,57.0,30.08,North,0,0.0,-999.0,72,-99.99,,,-99.99,,2013-06-20 07:52:00,
2013-06-20 03:01:00,68.0,57.0,30.08,ESE,120,3.0,-999.0,68,-99.99,,,-99.99,,2013-06-20 08:01:00,
2013-06-20 03:11:00,68.0,57.0,30.08,ESE,120,3.0,-999.0,68,-99.99,,,-99.99,,2013-06-20 08:11:00,
2013-06-20 03:22:00,70.0,57.0,30.08,ESE,110,3.0,-999.0,64,-99.99,,,-99.99,,2013-06-20 08:22:00,
2013-06-20 03:33:00,70.0,57.0,30.08,ESE,110,3.0,-999.0,64,-99.99,,,-99.99,,2013-06-20 08:33:00,
2013-06-20 03:43:00,70.0,57.0,30.08,ESE,120,3.0,-999.0,64,-99.99,,,-99.99,,2013-06-20 08:43:00,
2013-06-20 03:52:00,70.0,57.0,30.08,ESE,120,3.0,-999.0,64,-99.99,,,-99.99,,2013-06-20 08:52:00,
2013-06-20 04:01:00,72.0,57.0,30.08,ESE,110,3.0,-999.0,60,-99.99,,,-99.99,,2013-06-20 09:01:00,
2013-06-20 04:11:00,70.0,57.0,30.08,ESE,120,3.0,-999.0,64,-99.99,,,-99.99,,2013-06-20 09:11:00,
2013-06-20 04:21:00,70.0,59.0,30.08,ESE,110,3.0,-999.0,68,-99.99,,,-99.99,,2013-06-20 09:21:00,
2013-06-20 04:33:00,70.0,59.0,30.08,ESE,120,3.0,-999.0,68,-99.99,,,-99.99,,2013-06-20 09:33:00,
2013-06-20 04:42:00,70.0,59.0,30.08,ESE,120,5.0,-999.0,68,-99.99,,,-99.99,,2013-06-20 09:42:00,
2013-06-20 04:52:00,70.0,59.0,30.08,ESE,120,5.0,-999.0,68,-99.99,,,-99.99,,2013-06-20 09:52:00,
2013-06-20 05:01:00,70.0,59.0,30.08,ESE,120,5.0,-999.0,68,-99.99,,,-99.99,,2013-06-20 10:01:00,
2013-06-20 05:11:00,70.0,59.0,30.08,SE,130,3.0,-999.0,68,-99.99,,,-99.99,,2013-06-20 10:11:00,
2013-06-20 05:22:00,70.0,59.0,30.08,SE,140,6.0,-999.0,68,-99.99,,,-99.99,,2013-06-20 10:22:00,
2013-06-20 05:33:00,70.0,59.0,30.08,SE,140,5.0,-999.0,68,-99.99,,,-99.99,,2013-06-20 10:33:00,
2013-06-20 05:43:00,70.0,59.0,30.08,SE,140,6.0,-999.0,68,-99.99,,,-99.99,,2013-06-20 10:43:00,
2013-06-20 05:53:00,70.0,59.0,30.08,SSE,150,6.0,-999.0,68,-99.99,,,-99.99,,2013-06-20 10:53:00,
2013-06-20 06:01:00,70.0,59.0,30.08,SSE,150,5.0,-999.0,68,-99.99,,,-99.99,,2013-06-20 11:01:00,
2013-06-20 06:11:00,70.0,59.0,30.08,SSE,150,6.0,-999.0,68,-99.99,,,-99.99,,2013-06-20 11:11:00,
2013-06-20 06:22:00,70.0,59.0,30.09,SSE,150,5.0,-999.0,68,-99.99,,,-99.99,,2013-06-20 11:22:00,
2013-06-20 06:33:00,70.0,59.0,30.09,SSE,150,5.0,-999.0,68,-99.99,,,-99.99,,2013-06-20 11:33:00,
2013-06-20 06:42:00,72.0,59.0,30.09,SSE,150,5.0,-999.0,64,-99.99,,,-99.99,,2013-06-20 11:42:00,
2013-06-20 06:52:00,72.0,59.0,30.09,SSE,150,6.0,-999.0,64,-99.99,,,-99.99,,2013-06-20 11:52:00,
2013-06-20 07:01:00,72.0,59.0,30.09,SSE,150,5.0,-999.0,64,-99.99,,,-99.99,,2013-06-20 12:01:00,
2013-06-20 07:33:00,73.0,61.0,30.10,SSE,150,5.0,-999.0,64,-99.99,,,-99.99,,2013-06-20 12:33:00,
2013-06-20 08:11:00,77.0,61.0,30.11,SE,140,7.0,-999.0,57,-99.99,,,-99.99,,2013-06-20 13:11:00,
2013-06-20 08:21:00,77.0,61.0,30.10,SE,140,7.0,-999.0,57,-99.99,,,-99.99,,2013-06-20 13:21:00,
2013-06-20 08:42:00,79.0,61.0,30.11,SSE,150,5.0,-999.0,54,-99.99,,,-99.99,,2013-06-20 13:42:00,
2013-06-20 08:52:00,79.0,61.0,30.11,SSE,150,7.0,-999.0,54,-99.99,,,-99.99,,2013-06-20 13:52:00,
2013-06-20 09:02:00,81.0,61.0,30.11,SSE,150,7.0,-999.0,50,-99.99,,,-99.99,,2013-06-20 14:02:00,
2013-06-20 09:11:00,81.0,63.0,30.11,SSE,150,6.0,-999.0,54,-99.99,,,-99.99,,2013-06-20 14:11:00,
2013-06-20 09:22:00,81.0,63.0,30.11,SE,140,7.0,-999.0,54,-99.99,,,-99.99,,2013-06-20 14:22:00,
2013-06-20 09:32:00,82.0,61.0,30.11,SSE,160,7.0,-999.0,48,-99.99,,,-99.99,,2013-06-20 14:32:00,
2013-06-20 09:42:00,82.0,61.0,30.11,SSE,150,8.0,-999.0,48,-99.99,,,-99.99,,2013-06-20 14:42:00,
2013-06-20 09:53:00,82.0,63.0,30.11,SSE,150,8.0,-999.0,51,-99.99,,,-99.99,,2013-06-20 14:53:00,
2013-06-20 10:01:00,82.0,63.0,30.10,SSE,160,6.0,-999.0,51,-99.99,,,-99.99,,2013-06-20 15:01:00,
2013-06-20 10:11:00,82.0,63.0,30.10,SSE,150,7.0,-999.0,51,-99.99,,,-99.99,,2013-06-20 15:11:00,
2013-06-20 10:21:00,82.0,63.0,30.10,SSE,160,9.0,-999.0,51,-99.99,,,-99.99,,2013-06-20 15:21:00,
2013-06-20 10:33:00,84.0,64.0,30.10,SSE,160,8.0,-999.0,51,-99.99,,,-99.99,,2013-06-20 15:33:00,
2013-06-20 10:43:00,84.0,64.0,30.10,SSE,160,7.0,-999.0,51,-99.99,,,-99.99,,2013-06-20 15:43:00,
2013-06-20 10:52:00,86.0,64.0,30.10,South,180,8.0,-999.0,48,-99.99,,,-99.99,,2013-06-20 15:52:00,
2013-06-20 11:01:00,86.0,63.0,30.11,SSE,150,8.0,-999.0,45,-99.99,,,-99.99,,2013-06-20 16:01:00,
2013-06-20 11:11:00,86.0,63.0,30.10,SSE,150,8.0,-999.0,45,-99.99,,,-99.99,,2013-06-20 16:11:00,
2013-06-20 11:22:00,86.0,63.0,30.10,SSE,160,8.0,-999.0,45,-99.99,,,-99.99,,2013-06-20 16:22:00,
2013-06-20 11:32:00,86.0,63.0,30.10,South,170,8.0,-999.0,45,-99.99,,,-99.99,,2013-06-20 16:32:00,
2013-06-20 11:42:00,88.0,64.0,30.10,SE,140,7.0,-999.0,45,-99.99,,,-99.99,,2013-06-20 16:42:00,
2013-06-20 11:52:00,88.0,63.0,30.10,SSE,150,8.0,-999.0,43,-99.99,,,-99.99,,2013-06-20 16:52:00,
2013-06-20 12:02:00,88.0,64.0,30.10,SSE,160,8.0,-999.0,45,-99.99,,,-99.99,,2013-06-20 17:02:00,
2013-06-20 12:11:00,88.0,63.0,30.10,SSE,150,6.0,-999.0,43,-99.99,,,-99.99,,2013-06-20 17:11:00,
2013-06-20 12:21:00,88.0,63.0,30.10,ESE,120,8.0,-999.0,43,-99.99,,,-99.99,,2013-06-20 17:21:00,
2013-06-20 12:32:00,88.0,63.0,30.10,South,180,8.0,-999.0,43,-99.99,,,-99.99,,2013-06-20 17:32:00,
2013-06-20 12:42:00,88.0,63.0,30.09,SSW,200,9.0,-999.0,43,-99.99,,,-99.99,,2013-06-20 17:42:00,
2013-06-20 12:52:00,88.0,63.0,30.09,South,180,9.0,-999.0,43,-99.99,,,-99.99,,2013-06-20 17:52:00,
2013-06-20 13:01:00,88.0,61.0,30.09,SSE,150,13.0,-999.0,40,-99.99,,,-99.99,,2013-06-20 18:01:00,
2013-06-20 13:11:00,88.0,63.0,30.09,South,170,9.0,-999.0,43,-99.99,,,-99.99,,2013-06-20 18:11:00,
2013-06-20 13:22:00,90.0,61.0,30.09,South,190,8.0,-999.0,38,-99.99,,,-99.99,,2013-06-20 18:22:00,
2013-06-20 13:33:00,90.0,61.0,30.08,SSE,150,8.0,-999.0,38,-99.99,,,-99.99,,2013-06-20 18:33:00,
2013-06-20 13:53:00,90.0,61.0,30.08,SSW,200,9.0,-999.0,38,-99.99,,,-99.99,,2013-06-20 18:53:00,
2013-06-20 14:01:00,88.0,63.0,30.08,SSE,160,10.0,17.0,43,-99.99,,,-99.99,,2013-06-20 19:01:00,
2013-06-20 14:11:00,90.0,63.0,30.08,South,170,10.0,18.0,40,-99.99,,,-99.99,,2013-06-20 19:11:00,
2013-06-20 14:22:00,90.0,61.0,30.07,South,180,12.0,17.0,38,-99.99,,,-99.99,,2013-06-20 19:22:00,
2013-06-20 14:33:00,90.0,61.0,30.06,SSE,160,8.0,-999.0,38,-99.99,,,-99.99,,2013-06-20 19:33:00,
2013-06-20 14:43:00,90.0,59.0,30.06,South,190,12.0,17.0,35,-99.99,,,-99.99,,2013-06-20 19:43:00,
2013-06-20 14:52:00,91.0,59.0,30.06,South,180,12.0,-999.0,33,-99.99,,,-99.99,,2013-06-20 19:52:00,
2013-06-20 15:01:00,90.0,59.0,30.06,South,170,9.0,16.0,35,-99.99,,,-99.99,,2013-06-20 20:01:00,
2013-06-20 15:11:00,90.0,59.0,30.06,South,170,9.0,16.0,35,-99.99,,,-99.99,,2013-06-20 20:11:00,
2013-06-20 15:21:00,91.0,59.0,30.06,South,190,13.0,18.0,33,-99.99,,,-99.99,,2013-06-20 20:21:00,
2013-06-20 15:33:00,91.0,59.0,30.06,SSE,160,12.0,-999.0,33,-99.99,,,-99.99,,2013-06-20 20:33:00,
2013-06-20 15:42:00,90.0,59.0,30.05,South,190,12.0,16.0,35,-99.99,,,-99.99,,2013-06-20 20:42:00,
2013-06-20 15:52:00,90.0,59.0,30.05,South,180,12.0,-999.0,35,-99.99,,,-99.99,,2013-06-20 20:52:00,
2013-06-20 16:01:00,90.0,61.0,30.05,South,190,10.0,-999.0,38,-99.99,,,-99.99,,2013-06-20 21:01:00,
2013-06-20 16:11:00,88.0,61.0,30.05,South,170,13.0,17.0,40,-99.99,,,-99.99,,2013-06-20 21:11:00,
2013-06-20 16:22:00,90.0,61.0,30.05,South,170,12.0,16.0,38,-99.99,,,-99.99,,2013-06-20 21:22:00,
2013-06-20 16:33:00,90.0,61.0,30.05,South,180,12.0,17.0,38,-99.99,,,-99.99,,2013-06-20 21:33:00,
2013-06-20 17:01:00,91.0,61.0,30.05,South,170,10.0,17.0,36,-99.99,,,-99.99,,2013-06-20 22:01:00,
2013-06-20 17:11:00,90.0,59.0,30.04,South,170,10.0,16.0,35,-99.99,,,-99.99,,2013-06-20 22:11:00,
2013-06-20 17:21:00,90.0,61.0,30.04,SSE,160,12.0,16.0,38,-99.99,,,-99.99,,2013-06-20 22:21:00,
2013-06-20 17:32:00,90.0,59.0,30.04,SSE,160,9.0,-999.0,35,-99.99,,,-99.99,,2013-06-20 22:32:00,
2013-06-20 17:42:00,90.0,61.0,30.04,SSE,160,12.0,-999.0,38,-99.99,,,-99.99,,2013-06-20 22:42:00,
2013-06-20 17:52:00,88.0,61.0,30.04,South,170,9.0,-999.0,40,-99.99,,,-99.99,,2013-06-20 22:52:00,
2013-06-20 18:01:00,90.0,61.0,30.04,SSE,150,8.0,-999.0,38,-99.99,,,-99.99,,2013-06-20 23:01:00,
2013-06-20 18:11:00,90.0,61.0,30.03,SSE,160,9.0,-999.0,38,-99.99,,,-99.99,,2013-06-20 23:11:00,
2013-06-20 18:21:00,90.0,61.0,30.03,SSE,150,6.0,-999.0,38,-99.99,,,-99.99,,2013-06-20 23:21:00,
2013-06-20 18:33:00,88.0,61.0,30.03,SSE,160,9.0,-999.0,40,-99.99,,,-99.99,,2013-06-20 23:33:00,
2013-06-20 18:42:00,88.0,61.0,30.03,SSE,150,9.0,-999.0,40,-99.99,,,-99.99,,2013-06-20 23:42:00,
2013-06-20 18:52:00,88.0,61.0,30.03,SSE,150,6.0,-999.0,40,-99.99,,,-99.99,,2013-06-20 23:52:00,
2013-06-20 19:01:00,88.0,61.0,30.03,SSE,150,10.0,17.0,40,-99.99,,,-99.99,,2013-06-21 00:01:00,
2013-06-20 19:11:00,88.0,61.0,30.03,SSE,150,10.0,17.0,40,-99.99,,,-99.99,,2013-06-21 00:11:00,
2013-06-20 19:21:00,88.0,61.0,30.03,SSE,150,7.0,-999.0,40,-99.99,,,-99.99,,2013-06-21 00:21:00,
2013-06-20 19:32:00,88.0,61.0,30.03,SE,140,10.0,-999.0,40,-99.99,,,-99.99,,2013-06-21 00:32:00,
2013-06-20 19:42:00,86.0,63.0,30.03,SE,140,5.0,-999.0,45,-99.99,,,-99.99,,2013-06-21 00:42:00,
2013-06-20 19:51:00,86.0,63.0,30.03,SE,140,5.0,-999.0,45,-99.99,,,-99.99,,2013-06-21 00:51:00,
2013-06-20 21:02:00,81.0,63.0,30.04,SSE,150,3.0,-999.0,54,-99.99,,,-99.99,,2013-06-21 02:02:00,
2013-06-20 21:11:00,81.0,64.0,30.05,SSE,150,5.0,-999.0,57,-99.99,,,-99.99,,2013-06-21 02:11:00,
2013-06-20 21:21:00,81.0,64.0,30.05,SSE,150,3.0,-999.0,57,-99.99,,,-99.99,,2013-06-21 02:21:00,
2013-06-20 21:32:00,81.0,64.0,30.04,SE,140,5.0,-999.0,57,-99.99,,,-99.99,,2013-06-21 02:32:00,
2013-06-20 22:01:00,81.0,64.0,30.05,SE,140,5.0,-999.0,57,-99.99,,,-99.99,,2013-06-21 03:01:00,
2013-06-20 22:11:00,81.0,64.0,30.05,SE,140,7.0,-999.0,57,-99.99,,,-99.99,,2013-06-21 03:11:00,
2013-06-20 22:22:00,81.0,64.0,30.05,SE,140,8.0,-999.0,57,-99.99,,,-99.99,,2013-06-21 03:22:00,
2013-06-20 22:33:00,81.0,64.0,30.05,SE,140,8.0,-999.0,57,-99.99,,,-99.99,,2013-06-21 03:33:00,
2013-06-20 23:01:00,81.0,64.0,30.05,SSE,150,9.0,-999.0,57,-99.99,,,-99.99,,2013-06-21 04:01:00,
2013-06-20 23:11:00,79.0,64.0,30.06,SSE,150,7.0,-999.0,61,-99.99,,,-99.99,,2013-06-21 04:11:00,
2013-06-20 23:21:00,79.0,64.0,30.05,SSE,160,5.0,-999.0,61,-99.99,,,-99.99,,2013-06-21 04:21:00,
2013-06-20 23:33:00,79.0,64.0,30.06,SSE,150,7.0,-999.0,61,-99.99,,,-99.99,,2013-06-21 04:33:00,